CDT,Max TemperatureF,Mean TemperatureF,Min TemperatureF,Max Dew PointF,MeanDew PointF,Min DewpointF,Max Humidity, Mean Humidity, Min Humidity, Max Sea Level PressureIn, Mean Sea Level PressureIn, Min Sea Level PressureIn, Max VisibilityMiles, Mean VisibilityMiles, Min VisibilityMiles, Max Wind SpeedMPH, Mean Wind SpeedMPH, Max Gust SpeedMPH,PrecipitationIn, CloudCover, Events, WindDirDegrees
2013-10-1,90,78,65,70,66,60,93,66,38,29.94,29.87,29.81,10,10,7,17,9,22,0.00,2,,147
2013-10-2,90,82,74,71,70,67,87,69,50,29.98,29.90,29.84,10,10,10,20,13,25,0.00,5,,155
2013-10-3,92,84,75,71,69,66,87,66,44,29.92,29.85,29.77,10,10,10,23,14,28,0.00,5,,174
2013-10-4,90,82,74,71,68,66,87,67,47,29.90,29.84,29.80,10,10,10,23,15,29,0.00,3,,171
2013-10-5,81,67,52,69,54,42,83,66,48,30.10,29.99,29.83,10,9,2,26,14,32,0.25,7,Rain-Thunderstorm,343
2013-10-6,77,64,50,49,40,29,83,50,16,30.12,30.07,30.01,10,10,10,21,10,28,0.00,0,,311
2013-10-7,82,67,52,50,40,33,69,44,18,30.15,30.09,30.05,10,10,10,13,4,16,0.00,0,,7
2013-10-8,82,69,55,51,44,41,64,44,24,30.10,30.04,29.97,10,10,8,13,6,17,0.00,1,,135
2013-10-9,84,70,56,55,52,50,80,57,34,30.06,30.00,29.96,10,10,10,18,8,29,0.00,1,,145
2013-10-10,85,72,59,62,58,54,84,62,40,30.04,29.95,29.86,10,10,10,20,10,24,0.00,1,,154
2013-10-11,88,79,70,70,66,61,79,67,55,29.92,29.85,29.79,10,10,10,21,14,28,0.00,5,,170
2013-10-12,93,81,69,73,70,66,87,66,44,30.05,29.94,29.85,10,10,10,17,9,21,T,5,Rain,181
2013-10-13,77,73,68,68,67,64,93,84,74,30.21,30.13,30.04,10,10,6,15,7,19,0.01,8,,95
2013-10-14,75,73,70,72,70,66,97,92,87,30.14,30.01,29.90,10,6,1,22,11,27,0.62,8,Rain,144
2013-10-15,78,66,54,71,63,51,93,88,82,30.07,29.95,29.88,10,9,4,23,14,29,0.61,8,Rain,316
2013-10-16,66,60,54,53,48,44,93,69,45,30.10,30.05,30.00,10,9,5,21,12,27,0.21,7,Rain,3
2013-10-17,72,60,47,48,44,41,86,60,34,30.13,30.05,29.98,10,10,10,12,4,14,0.00,1,,287
2013-10-18,70,61,52,55,51,46,86,69,51,30.10,29.98,29.89,10,10,2,28,9,33,0.07,7,Rain,123
2013-10-19,66,55,43,44,39,35,83,58,32,30.22,30.14,30.07,10,10,10,25,11,31,T,3,Rain,328
2013-10-20,73,59,44,46,41,39,83,57,31,30.06,29.97,29.86,10,10,10,22,11,28,0.00,1,,171
2013-10-21,74,63,51,58,51,45,86,72,57,30.10,29.98,29.89,10,10,10,21,10,25,0.00,6,,54
2013-10-22,77,61,45,46,42,38,82,55,27,30.17,30.09,30.02,10,10,10,15,8,20,0.00,0,,284
2013-10-23,83,66,48,50,46,43,83,55,26,30.12,30.07,30.02,10,10,10,13,5,15,0.00,0,,224
2013-10-24,80,67,53,51,47,42,72,53,33,30.27,30.15,30.05,10,10,10,15,9,18,0.00,1,,16
2013-10-25,70,60,50,47,44,41,80,60,40,30.40,30.30,30.23,10,10,10,17,9,22,0.00,3,,90
2013-10-26,78,66,54,62,56,47,77,69,60,30.22,30.12,30.01,10,9,0,35,11,39,1.25,7,Fog-Rain-Thunderstorm,150
2013-10-27,67,63,58,58,57,55,90,79,68,30.13,30.06,30.00,10,10,6,10,4,12,T,7,Rain,5
2013-10-28,77,66,55,66,60,54,100,85,69,30.10,30.03,29.98,10,6,0,18,9,23,0.00,7,Fog,141
2013-10-29,77,74,70,69,67,66,90,82,74,30.08,30.02,29.97,10,10,10,21,15,25,0.00,8,,161
2013-10-30,73,70,66,69,67,64,93,86,79,30.01,29.92,29.78,10,8,2,29,14,37,0.10,8,Rain,147
2013-10-31,75,65,54,69,54,38,93,60,27,29.86,29.75,29.68,10,9,4,31,13,37,0.01,4,Rain,236